M I D A S
Marine Information and Data Acquisition System
Tripno 2302 of the Zeeleeuw from 2012-01-24 06:02:30 to 2012-01-24 13:43:15
Back to CruiseResearch ActivitiesStationsMapUnderway DataData graphs

EquipmentUnitsComment
TimeDGPSUTC
LatitudeDGPSDM.mWGS84
LongitudeDGPSDM.mWGS84
TemperatureSBE03/SBE38deg celciusITS90
ConductivitySBE21S/mITS90
SalinitySBE21 Practical Salinity Units
ChlorophylAChelsea fluorimeterg/lCalibrated in Aceton
Missing or incorrect values are displayed as -999
Sea surface data collected by the RV Zeeleeuw from 2012-01-24 05:52:43 to 2012-01-24 15:00:08
Time Latitude Longitude Temperature Conductivity Salinity ChlorophylA
2012-01-24 05:53:48 51°13.635 2°56.018 -999 -999 -999 -999
2012-01-24 05:54:48 51°13.635 2°56.017 -999 -999 -999 -999
2012-01-24 05:55:48 51°13.637 2°56.017 -999 -999 -999 -999
2012-01-24 05:56:47 51°13.638 2°56.018 -999 -999 -999 -999
2012-01-24 05:57:46 51°13.637 2°56.018 -999 -999 -999 -999
2012-01-24 05:58:44 51°13.638 2°56.018 -999 -999 -999 -999
2012-01-24 05:59:48 51°13.638 2°56.018 -999 -999 -999 -999
2012-01-24 06:00:48 51°13.638 2°56.018 -999 -999 -999 -999
2012-01-24 06:01:48 51°13.637 2°56.018 -999 -999 -999 -999
2012-01-24 06:02:46 51°13.64 2°55.992 -999 -999 -999 -999
2012-01-24 06:03:48 51°13.664 2°55.888 -999 -999 -999 -999
2012-01-24 06:04:48 51°13.711 2°55.776 -999 -999 -999 -999
2012-01-24 06:05:36 51°13.765 2°55.699 -999 -999 -999 -999
2012-01-24 06:06:48 51°13.859 2°55.621 -999 -999 -999 -999
2012-01-24 06:07:48 51°13.937 2°55.626 -999 -999 -999 -999
2012-01-24 06:08:48 51°13.972 2°55.649 -999 -999 -999 -999
2012-01-24 06:09:48 51°13.992 2°55.574 -999 -999 -999 -999
2012-01-24 06:10:46 51°14.09 2°55.467 -999 -999 -999 -999
2012-01-24 06:11:45 51°14.217 2°55.341 -999 -999 -999 -999
2012-01-24 06:12:46 51°14.355 2°55.197 -999 -999 -999 -999
2012-01-24 06:13:46 51°14.501 2°55.047 -999 -999 -999 -999
2012-01-24 06:14:45 51°14.666 2°54.898 -999 -999 -999 -999
2012-01-24 06:15:45 51°14.852 2°54.807 -999 -999 -999 -999
2012-01-24 06:16:45 51°15.037 2°54.739 -999 -999 -999 -999
2012-01-24 06:17:45 51°15.215 2°54.631 -999 -999 -999 -999
2012-01-24 06:18:45 51°15.384 2°54.461 -999 -999 -999 -999
2012-01-24 06:19:45 51°15.554 2°54.285 -999 -999 -999 -999
2012-01-24 06:20:45 51°15.725 2°54.117 -999 -999 -999 -999
2012-01-24 06:21:45 51°15.878 2°53.903 -999 -999 -999 -999
2012-01-24 06:22:45 51°16.035 2°53.689 -999 -999 -999 -999
2012-01-24 06:23:45 51°16.206 2°53.512 -999 -999 -999 -999
2012-01-24 06:24:45 51°16.372 2°53.316 -999 -999 -999 -999
2012-01-24 06:25:45 51°16.531 2°53.105 -999 -999 -999 -999
2012-01-24 06:26:45 51°16.702 2°52.932 -999 -999 -999 -999
2012-01-24 06:27:45 51°16.871 2°52.76 -999 -999 -999 -999
2012-01-24 06:28:45 51°17.049 2°52.621 -999 -999 -999 -999
2012-01-24 06:29:45 51°17.225 2°52.473 -999 -999 -999 -999
2012-01-24 06:30:45 51°17.411 2°52.365 -999 -999 -999 -999
2012-01-24 06:31:45 51°17.604 2°52.313 -999 -999 -999 -999
2012-01-24 06:32:45 51°17.795 2°52.291 -999 -999 -999 -999
2012-01-24 06:33:45 51°17.987 2°52.276 -999 -999 -999 -999
2012-01-24 06:34:45 51°18.18 2°52.236 -999 -999 -999 -999
2012-01-24 06:35:45 51°18.373 2°52.224 -999 -999 -999 -999
2012-01-24 06:36:45 51°18.568 2°52.208 -999 -999 -999 -999
2012-01-24 06:37:45 51°18.762 2°52.193 -999 -999 -999 -999
2012-01-24 06:38:45 51°18.957 2°52.153 -999 -999 -999 -999
2012-01-24 06:39:45 51°19.151 2°52.117 -999 -999 -999 -999
2012-01-24 06:40:45 51°19.345 2°52.092 -999 -999 -999 -999
2012-01-24 06:41:45 51°19.536 2°52.044 -999 -999 -999 -999
2012-01-24 06:42:45 51°19.728 2°52.022 -999 -999 -999 -999
2012-01-24 06:43:45 51°19.92 2°51.976 -999 -999 -999 -999
2012-01-24 06:44:45 51°20.113 2°51.923 -999 -999 -999 -999
2012-01-24 06:45:45 51°20.307 2°51.891 -999 -999 -999 -999
2012-01-24 06:46:45 51°20.501 2°51.867 -999 -999 -999 -999
2012-01-24 06:47:45 51°20.695 2°51.829 -999 -999 -999 -999
2012-01-24 06:48:45 51°20.89 2°51.776 -999 -999 -999 -999
2012-01-24 06:49:45 51°21.087 2°51.732 -999 -999 -999 -999
2012-01-24 06:50:45 51°21.282 2°51.693 -999 -999 -999 -999
2012-01-24 06:51:45 51°21.48 2°51.673 -999 -999 -999 -999
2012-01-24 06:52:45 51°21.679 2°51.635 -999 -999 -999 -999
2012-01-24 06:53:45 51°21.878 2°51.624 -999 -999 -999 -999
2012-01-24 06:54:45 51°22.076 2°51.632 -999 -999 -999 -999
2012-01-24 06:55:45 51°22.275 2°51.637 -999 -999 -999 -999
2012-01-24 06:56:45 51°22.474 2°51.618 -999 -999 -999 -999
2012-01-24 06:57:45 51°22.667 2°51.619 -999 -999 -999 -999
2012-01-24 06:58:45 51°22.861 2°51.608 -999 -999 -999 -999
2012-01-24 06:59:45 51°23.056 2°51.606 -999 -999 -999 -999
2012-01-24 07:00:45 51°23.251 2°51.608 -999 -999 -999 -999
2012-01-24 07:01:45 51°23.447 2°51.616 -999 -999 -999 -999
2012-01-24 07:02:45 51°23.644 2°51.609 -999 -999 -999 -999
2012-01-24 07:03:45 51°23.84 2°51.599 -999 -999 -999 -999
2012-01-24 07:04:45 51°24.032 2°51.631 -999 -999 -999 -999
2012-01-24 07:05:45 51°24.226 2°51.638 -999 -999 -999 -999
2012-01-24 07:06:45 51°24.42 2°51.655 -999 -999 -999 -999
2012-01-24 07:07:45 51°24.612 2°51.674 -999 -999 -999 -999
2012-01-24 07:08:45 51°24.804 2°51.696 -999 -999 -999 -999
2012-01-24 07:09:45 51°24.998 2°51.708 -999 -999 -999 -999
2012-01-24 07:10:45 51°25.191 2°51.707 -999 -999 -999 -999
2012-01-24 07:11:45 51°25.377 2°51.735 -999 -999 -999 -999
2012-01-24 07:12:45 51°25.563 2°51.755 -999 -999 -999 -999
2012-01-24 07:13:45 51°25.75 2°51.756 -999 -999 -999 -999
2012-01-24 07:14:45 51°25.941 2°51.756 -999 -999 -999 -999
2012-01-24 07:15:45 51°26.131 2°51.78 -999 -999 -999 -999
2012-01-24 07:16:45 51°26.321 2°51.788 -999 -999 -999 -999
2012-01-24 07:17:45 51°26.515 2°51.773 -999 -999 -999 -999
2012-01-24 07:18:45 51°26.709 2°51.759 -999 -999 -999 -999
2012-01-24 07:19:45 51°26.902 2°51.756 -999 -999 -999 -999
2012-01-24 07:20:45 51°27.098 2°51.738 -999 -999 -999 -999
2012-01-24 07:21:45 51°27.291 2°51.736 -999 -999 -999 -999
2012-01-24 07:22:45 51°27.483 2°51.741 -999 -999 -999 -999
2012-01-24 07:23:45 51°27.674 2°51.748 -999 -999 -999 -999
2012-01-24 07:24:45 51°27.869 2°51.737 -999 -999 -999 -999
2012-01-24 07:25:45 51°28.062 2°51.736 -999 -999 -999 -999
2012-01-24 07:26:45 51°28.254 2°51.75 -999 -999 -999 -999
2012-01-24 07:27:45 51°28.447 2°51.74 -999 -999 -999 -999
2012-01-24 07:28:45 51°28.639 2°51.73 -999 -999 -999 -999
2012-01-24 07:29:45 51°28.83 2°51.735 -999 -999 -999 -999
2012-01-24 07:30:45 51°29.019 2°51.726 -999 -999 -999 -999
2012-01-24 07:31:45 51°29.21 2°51.723 -999 -999 -999 -999
2012-01-24 07:32:45 51°29.401 2°51.727 -999 -999 -999 -999
2012-01-24 07:33:45 51°29.592 2°51.716 -999 -999 -999 -999
2012-01-24 07:34:45 51°29.784 2°51.701 -999 -999 -999 -999
2012-01-24 07:35:45 51°29.971 2°51.744 -999 -999 -999 -999
2012-01-24 07:36:45 51°30.158 2°51.799 -999 -999 -999 -999
2012-01-24 07:37:45 51°30.346 2°51.84 -999 -999 -999 -999
2012-01-24 07:38:45 51°30.531 2°51.887 -999 -999 -999 -999
2012-01-24 07:39:45 51°30.698 2°52.011 -999 -999 -999 -999
2012-01-24 07:40:45 51°30.865 2°52.135 -999 -999 -999 -999
2012-01-24 07:41:45 51°31.031 2°52.262 -999 -999 -999 -999
2012-01-24 07:42:45 51°31.176 2°52.407 -999 -999 -999 -999
2012-01-24 07:43:45 51°31.23 2°52.487 -999 -999 -999 -999
2012-01-24 07:44:45 51°31.219 2°52.488 -999 -999 -999 -999
2012-01-24 07:45:45 51°31.201 2°52.475 -999 -999 -999 -999
2012-01-24 07:46:45 51°31.192 2°52.471 -999 -999 -999 -999
2012-01-24 07:47:45 51°31.185 2°52.481 -999 -999 -999 -999
2012-01-24 07:48:45 51°31.182 2°52.488 -999 -999 -999 -999
2012-01-24 07:49:45 51°31.181 2°52.486 -999 -999 -999 -999
2012-01-24 07:50:45 51°31.182 2°52.482 -999 -999 -999 -999
2012-01-24 07:51:45 51°31.184 2°52.475 -999 -999 -999 -999
2012-01-24 07:52:45 51°31.187 2°52.471 -999 -999 -999 -999
2012-01-24 07:53:45 51°31.189 2°52.467 -999 -999 -999 -999
2012-01-24 07:54:45 51°31.19 2°52.465 -999 -999 -999 -999
2012-01-24 07:55:45 51°31.19 2°52.462 -999 -999 -999 -999
2012-01-24 07:56:45 51°31.191 2°52.461 -999 -999 -999 -999
2012-01-24 07:57:45 51°31.191 2°52.461 -999 -999 -999 -999
2012-01-24 07:58:45 51°31.191 2°52.461 -999 -999 -999 -999
2012-01-24 07:59:45 51°31.19 2°52.461 -999 -999 -999 -999
2012-01-24 08:00:45 51°31.19 2°52.462 -999 -999 -999 -999
2012-01-24 08:01:45 51°31.191 2°52.46 -999 -999 -999 -999
2012-01-24 08:02:45 51°31.19 2°52.462 -999 -999 -999 -999
2012-01-24 08:03:45 51°31.189 2°52.463 -999 -999 -999 -999
2012-01-24 08:04:45 51°31.189 2°52.463 -999 -999 -999 -999
2012-01-24 08:05:45 51°31.188 2°52.464 -999 -999 -999 -999
2012-01-24 08:06:45 51°31.188 2°52.464 -999 -999 -999 -999
2012-01-24 08:07:45 51°31.188 2°52.463 -999 -999 -999 -999
2012-01-24 08:08:45 51°31.19 2°52.461 -999 -999 -999 -999
2012-01-24 08:09:45 51°31.191 2°52.46 -999 -999 -999 -999
2012-01-24 08:10:45 51°31.19 2°52.461 -999 -999 -999 -999
2012-01-24 08:11:45 51°31.19 2°52.46 -999 -999 -999 -999
2012-01-24 08:12:45 51°31.19 2°52.461 -999 -999 -999 -999
2012-01-24 08:13:45 51°31.189 2°52.462 -999 -999 -999 -999
2012-01-24 08:14:45 51°31.188 2°52.463 -999 -999 -999 -999
2012-01-24 08:15:45 51°31.188 2°52.463 -999 -999 -999 -999
2012-01-24 08:16:45 51°31.19 2°52.463 -999 -999 -999 -999
2012-01-24 08:17:45 51°31.189 2°52.462 -999 -999 -999 -999
2012-01-24 08:18:45 51°31.189 2°52.464 -999 -999 -999 -999
2012-01-24 08:19:45 51°31.188 2°52.463 -999 -999 -999 -999
2012-01-24 08:20:45 51°31.188 2°52.464 -999 -999 -999 -999
2012-01-24 08:21:45 51°31.189 2°52.463 -999 -999 -999 -999
2012-01-24 08:22:45 51°31.19 2°52.461 -999 -999 -999 -999
2012-01-24 08:23:45 51°31.192 2°52.458 -999 -999 -999 -999
2012-01-24 08:24:45 51°31.192 2°52.458 -999 -999 -999 -999
2012-01-24 08:25:45 51°31.191 2°52.459 -999 -999 -999 -999
2012-01-24 08:26:45 51°31.19 2°52.461 -999 -999 -999 -999
2012-01-24 08:27:45 51°31.19 2°52.461 -999 -999 -999 -999
2012-01-24 08:28:45 51°31.191 2°52.46 -999 -999 -999 -999
2012-01-24 08:29:45 51°31.19 2°52.46 -999 -999 -999 -999
2012-01-24 08:30:45 51°31.19 2°52.46 -999 -999 -999 -999
2012-01-24 08:31:45 51°31.19 2°52.46 -999 -999 -999 -999
2012-01-24 08:32:45 51°31.19 2°52.46 -999 -999 -999 -999
2012-01-24 08:33:45 51°31.19 2°52.46 -999 -999 -999 -999
2012-01-24 08:34:45 51°31.191 2°52.458 -999 -999 -999 -999
2012-01-24 08:35:45 51°31.192 2°52.459 -999 -999 -999 -999
2012-01-24 08:36:45 51°31.192 2°52.457 -999 -999 -999 -999
2012-01-24 08:37:45 51°31.192 2°52.457 -999 -999 -999 -999
2012-01-24 08:38:45 51°31.202 2°52.464 -999 -999 -999 -999
2012-01-24 08:39:45 51°31.209 2°52.472 -999 -999 -999 -999
2012-01-24 08:40:45 51°31.211 2°52.486 -999 -999 -999 -999
2012-01-24 08:41:45 51°31.212 2°52.494 -999 -999 -999 -999
2012-01-24 08:42:45 51°31.204 2°52.49 -999 -999 -999 -999
2012-01-24 08:43:45 51°31.203 2°52.484 -999 -999 -999 -999
2012-01-24 08:44:45 51°31.22 2°52.527 -999 -999 -999 -999
2012-01-24 08:45:45 51°31.248 2°52.604 -999 -999 -999 -999
2012-01-24 08:46:45 51°31.297 2°52.666 -999 -999 -999 -999
2012-01-24 08:47:45 51°31.336 2°52.714 -999 -999 -999 -999
2012-01-24 08:48:45 51°31.366 2°52.761 -999 -999 -999 -999
2012-01-24 08:49:45 51°31.398 2°52.808 -999 -999 -999 -999
2012-01-24 08:50:45 51°31.431 2°52.872 -999 -999 -999 -999
2012-01-24 08:51:45 51°31.463 2°52.941 -999 -999 -999 -999
2012-01-24 08:52:45 51°31.514 2°53.025 -999 -999 -999 -999
2012-01-24 08:53:45 51°31.61 2°53.178 -999 -999 -999 -999
2012-01-24 08:54:45 51°31.696 2°53.383 -999 -999 -999 -999
2012-01-24 08:55:45 51°31.782 2°53.606 -999 -999 -999 -999
2012-01-24 08:56:45 51°31.888 2°53.809 -999 -999 -999 -999
2012-01-24 08:57:45 51°32.003 2°53.996 -999 -999 -999 -999
2012-01-24 08:58:45 51°32.119 2°54.181 -999 -999 -999 -999
2012-01-24 08:59:45 51°32.229 2°54.379 -999 -999 -999 -999
2012-01-24 09:00:45 51°32.331 2°54.584 -999 -999 -999 -999
2012-01-24 09:01:45 51°32.396 2°54.701 -999 -999 -999 -999
2012-01-24 09:02:45 51°32.396 2°54.771 -999 -999 -999 -999
2012-01-24 09:03:45 51°32.352 2°54.811 -999 -999 -999 -999
2012-01-24 09:04:45 51°32.305 2°54.834 -999 -999 -999 -999
2012-01-24 09:05:45 51°32.255 2°54.844 -999 -999 -999 -999
2012-01-24 09:06:45 51°32.204 2°54.845 -999 -999 -999 -999
2012-01-24 09:07:45 51°32.153 2°54.842 -999 -999 -999 -999
2012-01-24 09:08:45 51°32.107 2°54.85 -999 -999 -999 -999
2012-01-24 09:09:45 51°32.078 2°54.881 -999 -999 -999 -999
2012-01-24 09:10:45 51°32.079 2°54.902 -999 -999 -999 -999
2012-01-24 09:11:45 51°32.098 2°54.917 -999 -999 -999 -999
2012-01-24 09:12:45 51°32.129 2°54.929 -999 -999 -999 -999
2012-01-24 09:13:45 51°32.162 2°54.945 -999 -999 -999 -999
2012-01-24 09:14:45 51°32.193 2°54.988 -999 -999 -999 -999
2012-01-24 09:15:45 51°32.241 2°55.045 -999 -999 -999 -999
2012-01-24 09:16:45 51°32.298 2°55.104 -999 -999 -999 -999
2012-01-24 09:17:45 51°32.355 2°55.169 -999 -999 -999 -999
2012-01-24 09:18:45 51°32.407 2°55.244 -999 -999 -999 -999
2012-01-24 09:19:45 51°32.436 2°55.267 -999 -999 -999 -999
2012-01-24 09:20:45 51°32.442 2°55.259 -999 -999 -999 -999
2012-01-24 09:21:45 51°32.437 2°55.244 -999 -999 -999 -999
2012-01-24 09:22:45 51°32.422 2°55.225 -999 -999 -999 -999
2012-01-24 09:23:45 51°32.404 2°55.208 -999 -999 -999 -999
2012-01-24 09:24:45 51°32.382 2°55.189 -999 -999 -999 -999
2012-01-24 09:25:45 51°32.357 2°55.173 -999 -999 -999 -999
2012-01-24 09:26:45 51°32.331 2°55.163 -999 -999 -999 -999
2012-01-24 09:27:45 51°32.304 2°55.154 -999 -999 -999 -999
2012-01-24 09:28:45 51°32.276 2°55.142 -999 -999 -999 -999
2012-01-24 09:29:45 51°32.249 2°55.132 -999 -999 -999 -999
2012-01-24 09:30:45 51°32.223 2°55.123 -999 -999 -999 -999
2012-01-24 09:31:45 51°32.198 2°55.113 -999 -999 -999 -999
2012-01-24 09:32:45 51°32.172 2°55.1 -999 -999 -999 -999
2012-01-24 09:33:45 51°32.147 2°55.087 -999 -999 -999 -999
2012-01-24 09:34:45 51°32.123 2°55.075 -999 -999 -999 -999
2012-01-24 09:35:45 51°32.099 2°55.065 -999 -999 -999 -999
2012-01-24 09:36:45 51°32.073 2°55.052 -999 -999 -999 -999
2012-01-24 09:37:45 51°32.047 2°55.041 -999 -999 -999 -999
2012-01-24 09:38:45 51°32.022 2°55.033 -999 -999 -999 -999
2012-01-24 09:39:45 51°31.998 2°55.025 -999 -999 -999 -999
2012-01-24 09:40:45 51°31.971 2°55.014 -999 -999 -999 -999
2012-01-24 09:41:45 51°31.958 2°55.005 -999 -999 -999 -999
2012-01-24 09:42:45 51°31.989 2°55 -999 -999 -999 -999
2012-01-24 09:43:45 51°32.036 2°55.035 -999 -999 -999 -999
2012-01-24 09:44:45 51°32.092 2°55.077 -999 -999 -999 -999
2012-01-24 09:45:45 51°32.163 2°55.129 -999 -999 -999 -999
2012-01-24 09:46:45 51°32.241 2°55.19 -999 -999 -999 -999
2012-01-24 09:47:45 51°32.318 2°55.259 -999 -999 -999 -999
2012-01-24 09:48:45 51°32.373 2°55.29 -999 -999 -999 -999
2012-01-24 09:49:45 51°32.394 2°55.278 -999 -999 -999 -999
2012-01-24 09:50:45 51°32.397 2°55.255 -999 -999 -999 -999
2012-01-24 09:51:45 51°32.391 2°55.232 -999 -999 -999 -999
2012-01-24 09:52:45 51°32.378 2°55.213 -999 -999 -999 -999
2012-01-24 09:53:45 51°32.361 2°55.196 -999 -999 -999 -999
2012-01-24 09:54:45 51°32.343 2°55.184 -999 -999 -999 -999
2012-01-24 09:55:45 51°32.323 2°55.176 -999 -999 -999 -999
2012-01-24 09:56:45 51°32.302 2°55.169 -999 -999 -999 -999
2012-01-24 09:57:45 51°32.28 2°55.162 -999 -999 -999 -999
2012-01-24 09:58:45 51°32.254 2°55.154 -999 -999 -999 -999
2012-01-24 09:59:45 51°32.23 2°55.149 -999 -999 -999 -999
2012-01-24 10:00:45 51°32.204 2°55.145 -999 -999 -999 -999
2012-01-24 10:01:45 51°32.178 2°55.141 -999 -999 -999 -999
2012-01-24 10:02:45 51°32.153 2°55.137 -999 -999 -999 -999
2012-01-24 10:03:45 51°32.128 2°55.131 -999 -999 -999 -999
2012-01-24 10:04:45 51°32.105 2°55.129 -999 -999 -999 -999
2012-01-24 10:05:45 51°32.082 2°55.125 -999 -999 -999 -999
2012-01-24 10:06:45 51°32.058 2°55.123 -999 -999 -999 -999
2012-01-24 10:07:45 51°32.039 2°55.119 -999 -999 -999 -999
2012-01-24 10:08:46 51°32.024 2°55.116 -999 -999 -999 -999
2012-01-24 10:09:45 51°32.031 2°55.127 -999 -999 -999 -999
2012-01-24 10:10:45 51°32.061 2°55.112 -999 -999 -999 -999
2012-01-24 10:11:45 51°32.073 2°55.053 -999 -999 -999 -999
2012-01-24 10:12:45 51°32.053 2°54.984 -999 -999 -999 -999
2012-01-24 10:13:45 51°32.006 2°54.943 -999 -999 -999 -999
2012-01-24 10:14:45 51°31.959 2°54.936 -999 -999 -999 -999
2012-01-24 10:15:45 51°31.911 2°54.942 -999 -999 -999 -999
2012-01-24 10:16:45 51°31.876 2°54.996 -999 -999 -999 -999
2012-01-24 10:17:45 51°31.889 2°55.04 -999 -999 -999 -999
2012-01-24 10:18:45 51°31.928 2°55.074 -999 -999 -999 -999
2012-01-24 10:19:45 51°31.974 2°55.142 -999 -999 -999 -999
2012-01-24 10:20:45 51°32.021 2°55.224 -999 -999 -999 -999
2012-01-24 10:21:45 51°32.081 2°55.268 -999 -999 -999 -999
2012-01-24 10:22:45 51°32.144 2°55.301 -999 -999 -999 -999
2012-01-24 10:23:45 51°32.21 2°55.326 -999 -999 -999 -999
2012-01-24 10:24:45 51°32.276 2°55.356 -999 -999 -999 -999
2012-01-24 10:25:45 51°32.325 2°55.387 -999 -999 -999 -999
2012-01-24 10:26:45 51°32.345 2°55.393 -999 -999 -999 -999
2012-01-24 10:27:45 51°32.349 2°55.395 -999 -999 -999 -999
2012-01-24 10:28:45 51°32.344 2°55.395 -999 -999 -999 -999
2012-01-24 10:29:45 51°32.333 2°55.393 -999 -999 -999 -999
2012-01-24 10:30:45 51°32.318 2°55.391 -999 -999 -999 -999
2012-01-24 10:31:45 51°32.298 2°55.39 -999 -999 -999 -999
2012-01-24 10:32:45 51°32.278 2°55.39 -999 -999 -999 -999
2012-01-24 10:33:45 51°32.257 2°55.392 -999 -999 -999 -999
2012-01-24 10:34:45 51°32.234 2°55.395 -999 -999 -999 -999
2012-01-24 10:35:45 51°32.208 2°55.395 -999 -999 -999 -999
2012-01-24 10:36:45 51°32.183 2°55.398 -999 -999 -999 -999
2012-01-24 10:37:45 51°32.159 2°55.402 -999 -999 -999 -999
2012-01-24 10:38:45 51°32.151 2°55.406 -999 -999 -999 -999
2012-01-24 10:39:45 51°32.164 2°55.396 -999 -999 -999 -999
2012-01-24 10:40:45 51°32.192 2°55.381 -999 -999 -999 -999
2012-01-24 10:41:45 51°32.247 2°55.385 -999 -999 -999 -999
2012-01-24 10:42:45 51°32.297 2°55.352 -999 -999 -999 -999
2012-01-24 10:43:45 51°32.271 2°55.257 -999 -999 -999 -999
2012-01-24 10:44:45 51°32.208 2°55.234 -999 -999 -999 -999
2012-01-24 10:45:45 51°32.155 2°55.233 -999 -999 -999 -999
2012-01-24 10:46:45 51°32.115 2°55.238 -999 -999 -999 -999
2012-01-24 10:47:45 51°32.081 2°55.243 -999 -999 -999 -999
2012-01-24 10:48:45 51°32.052 2°55.247 -999 -999 -999 -999
2012-01-24 10:49:45 51°32.026 2°55.253 -999 -999 -999 -999
2012-01-24 10:50:45 51°32 2°55.26 -999 -999 -999 -999
2012-01-24 10:51:45 51°31.978 2°55.27 -999 -999 -999 -999
2012-01-24 10:52:45 51°31.944 2°55.279 -999 -999 -999 -999
2012-01-24 10:53:45 51°31.881 2°55.262 -999 -999 -999 -999
2012-01-24 10:54:45 51°31.8 2°55.21 -999 -999 -999 -999
2012-01-24 10:55:45 51°31.666 2°55.125 -999 -999 -999 -999
2012-01-24 10:56:45 51°31.513 2°55.023 -999 -999 -999 -999
2012-01-24 10:57:45 51°31.364 2°54.905 -999 -999 -999 -999
2012-01-24 10:58:45 51°31.255 2°54.817 -999 -999 -999 -999
2012-01-24 10:59:45 51°31.178 2°54.806 -999 -999 -999 -999
2012-01-24 11:00:45 51°31.124 2°54.82 -999 -999 -999 -999
2012-01-24 11:01:45 51°31.084 2°54.837 -999 -999 -999 -999
2012-01-24 11:02:45 51°31.017 2°54.844 -999 -999 -999 -999
2012-01-24 11:03:45 51°30.841 2°54.792 -999 -999 -999 -999
2012-01-24 11:04:45 51°30.641 2°54.66 -999 -999 -999 -999
2012-01-24 11:05:45 51°30.444 2°54.534 -999 -999 -999 -999
2012-01-24 11:06:45 51°30.246 2°54.414 -999 -999 -999 -999
2012-01-24 11:07:45 51°30.048 2°54.306 -999 -999 -999 -999
2012-01-24 11:08:45 51°29.847 2°54.2 -999 -999 -999 -999
2012-01-24 11:09:45 51°29.652 2°54.081 -999 -999 -999 -999
2012-01-24 11:10:45 51°29.455 2°53.979 -999 -999 -999 -999
2012-01-24 11:11:45 51°29.258 2°53.86 -999 -999 -999 -999
2012-01-24 11:12:45 51°29.061 2°53.74 -999 -999 -999 -999
2012-01-24 11:13:45 51°28.86 2°53.636 -999 -999 -999 -999
2012-01-24 11:14:45 51°28.661 2°53.518 -999 -999 -999 -999
2012-01-24 11:15:45 51°28.465 2°53.393 -999 -999 -999 -999
2012-01-24 11:16:45 51°28.265 2°53.278 -999 -999 -999 -999
2012-01-24 11:17:45 51°28.062 2°53.165 -999 -999 -999 -999
2012-01-24 11:18:45 51°27.863 2°53.037 -999 -999 -999 -999
2012-01-24 11:19:45 51°27.663 2°52.913 -999 -999 -999 -999
2012-01-24 11:20:45 51°27.463 2°52.79 -999 -999 -999 -999
2012-01-24 11:21:45 51°27.262 2°52.678 -999 -999 -999 -999
2012-01-24 11:22:45 51°27.069 2°52.544 -999 -999 -999 -999
2012-01-24 11:23:45 51°26.919 2°52.317 -999 -999 -999 -999
2012-01-24 11:24:45 51°26.82 2°52.083 -999 -999 -999 -999
2012-01-24 11:25:45 51°26.71 2°51.946 -999 -999 -999 -999
2012-01-24 11:26:45 51°26.658 2°51.839 -999 -999 -999 -999
2012-01-24 11:27:45 51°26.646 2°51.722 -999 -999 -999 -999
2012-01-24 11:28:45 51°26.625 2°51.677 -999 -999 -999 -999
2012-01-24 11:29:47 51°26.617 2°51.701 -999 -999 -999 -999
2012-01-24 11:30:46 51°26.611 2°51.731 -999 -999 -999 -999
2012-01-24 11:31:45 51°26.606 2°51.756 -999 -999 -999 -999
2012-01-24 11:32:45 51°26.603 2°51.765 -999 -999 -999 -999
2012-01-24 11:33:45 51°26.604 2°51.762 -999 -999 -999 -999
2012-01-24 11:34:45 51°26.609 2°51.762 -999 -999 -999 -999
2012-01-24 11:35:45 51°26.61 2°51.761 -999 -999 -999 -999
2012-01-24 11:36:45 51°26.61 2°51.763 -999 -999 -999 -999
2012-01-24 11:37:45 51°26.609 2°51.762 -999 -999 -999 -999
2012-01-24 11:38:45 51°26.609 2°51.764 -999 -999 -999 -999
2012-01-24 11:39:45 51°26.613 2°51.765 -999 -999 -999 -999
2012-01-24 11:40:45 51°26.615 2°51.764 -999 -999 -999 -999
2012-01-24 11:41:45 51°26.615 2°51.764 -999 -999 -999 -999
2012-01-24 11:42:45 51°26.612 2°51.764 -999 -999 -999 -999
2012-01-24 11:43:45 51°26.611 2°51.764 -999 -999 -999 -999
2012-01-24 11:44:45 51°26.613 2°51.764 -999 -999 -999 -999
2012-01-24 11:45:45 51°26.617 2°51.761 -999 -999 -999 -999
2012-01-24 11:46:45 51°26.617 2°51.761 -999 -999 -999 -999
2012-01-24 11:47:45 51°26.613 2°51.765 -999 -999 -999 -999
2012-01-24 11:48:45 51°26.612 2°51.763 -999 -999 -999 -999
2012-01-24 11:49:45 51°26.613 2°51.762 -999 -999 -999 -999
2012-01-24 11:50:45 51°26.617 2°51.764 -999 -999 -999 -999
2012-01-24 11:51:45 51°26.62 2°51.763 -999 -999 -999 -999
2012-01-24 11:52:45 51°26.62 2°51.764 -999 -999 -999 -999
2012-01-24 11:53:45 51°26.62 2°51.764 -999 -999 -999 -999
2012-01-24 11:54:45 51°26.62 2°51.764 -999 -999 -999 -999
2012-01-24 11:55:45 51°26.62 2°51.763 -999 -999 -999 -999
2012-01-24 11:56:45 51°26.621 2°51.764 -999 -999 -999 -999
2012-01-24 11:57:46 51°26.62 2°51.764 -999 -999 -999 -999
2012-01-24 11:58:45 51°26.617 2°51.765 -999 -999 -999 -999
2012-01-24 11:59:45 51°26.614 2°51.764 -999 -999 -999 -999
2012-01-24 12:00:45 51°26.616 2°51.763 -999 -999 -999 -999
2012-01-24 12:01:45 51°26.621 2°51.762 -999 -999 -999 -999
2012-01-24 12:02:45 51°26.622 2°51.76 -999 -999 -999 -999
2012-01-24 12:03:45 51°26.622 2°51.762 -999 -999 -999 -999
2012-01-24 12:04:45 51°26.621 2°51.764 -999 -999 -999 -999
2012-01-24 12:05:45 51°26.621 2°51.762 -999 -999 -999 -999
2012-01-24 12:06:45 51°26.62 2°51.762 -999 -999 -999 -999
2012-01-24 12:07:45 51°26.619 2°51.764 -999 -999 -999 -999
2012-01-24 12:08:46 51°26.62 2°51.763 -999 -999 -999 -999
2012-01-24 12:09:45 51°26.621 2°51.763 -999 -999 -999 -999
2012-01-24 12:10:45 51°26.62 2°51.762 -999 -999 -999 -999
2012-01-24 12:11:45 51°26.621 2°51.764 -999 -999 -999 -999
2012-01-24 12:12:45 51°26.62 2°51.762 -999 -999 -999 -999
2012-01-24 12:13:45 51°26.623 2°51.761 -999 -999 -999 -999
2012-01-24 12:14:45 51°26.625 2°51.76 -999 -999 -999 -999
2012-01-24 12:15:45 51°26.624 2°51.761 -999 -999 -999 -999
2012-01-24 12:16:45 51°26.622 2°51.762 -999 -999 -999 -999
2012-01-24 12:17:45 51°26.622 2°51.762 -999 -999 -999 -999
2012-01-24 12:18:45 51°26.624 2°51.761 -999 -999 -999 -999
2012-01-24 12:19:45 51°26.625 2°51.762 -999 -999 -999 -999
2012-01-24 12:20:45 51°26.622 2°51.762 -999 -999 -999 -999
2012-01-24 12:21:45 51°26.621 2°51.763 -999 -999 -999 -999
2012-01-24 12:22:45 51°26.621 2°51.765 -999 -999 -999 -999
2012-01-24 12:23:45 51°26.62 2°51.763 -999 -999 -999 -999
2012-01-24 12:24:45 51°26.621 2°51.764 -999 -999 -999 -999
2012-01-24 12:25:45 51°26.622 2°51.763 -999 -999 -999 -999
2012-01-24 12:26:45 51°26.623 2°51.759 -999 -999 -999 -999
2012-01-24 12:27:45 51°26.624 2°51.747 -999 -999 -999 -999
2012-01-24 12:28:45 51°26.624 2°51.736 -999 -999 -999 -999
2012-01-24 12:29:46 51°26.624 2°51.725 -999 -999 -999 -999
2012-01-24 12:30:45 51°26.62 2°51.713 -999 -999 -999 -999
2012-01-24 12:31:45 51°26.619 2°51.712 -999 -999 -999 -999
2012-01-24 12:32:45 51°26.622 2°51.729 -999 -999 -999 -999
2012-01-24 12:33:45 51°26.625 2°51.757 -999 -999 -999 -999
2012-01-24 12:34:45 51°26.624 2°51.772 -999 -999 -999 -999
2012-01-24 12:35:45 51°26.541 2°51.762 -999 -999 -999 -999
2012-01-24 12:36:45 51°26.369 2°51.789 -999 -999 -999 -999
2012-01-24 12:37:45 51°26.187 2°51.804 -999 -999 -999 -999
2012-01-24 12:38:45 51°26.004 2°51.796 -999 -999 -999 -999
2012-01-24 12:39:45 51°25.82 2°51.793 -999 -999 -999 -999
2012-01-24 12:40:45 51°25.633 2°51.801 -999 -999 -999 -999
2012-01-24 12:41:45 51°25.451 2°51.81 -999 -999 -999 -999
2012-01-24 12:42:45 51°25.272 2°51.8 -999 -999 -999 -999
2012-01-24 12:43:45 51°25.09 2°51.797 -999 -999 -999 -999
2012-01-24 12:44:45 51°24.906 2°51.806 -999 -999 -999 -999
2012-01-24 12:45:45 51°24.722 2°51.813 -999 -999 -999 -999
2012-01-24 12:46:45 51°24.537 2°51.827 -999 -999 -999 -999
2012-01-24 12:47:45 51°24.351 2°51.834 -999 -999 -999 -999
2012-01-24 12:48:45 51°24.166 2°51.833 -999 -999 -999 -999
2012-01-24 12:49:45 51°23.98 2°51.838 -999 -999 -999 -999
2012-01-24 12:50:45 51°23.793 2°51.836 -999 -999 -999 -999
2012-01-24 12:51:45 51°23.606 2°51.85 -999 -999 -999 -999
2012-01-24 12:52:45 51°23.418 2°51.861 -999 -999 -999 -999
2012-01-24 12:53:45 51°23.231 2°51.874 -999 -999 -999 -999
2012-01-24 12:54:45 51°23.046 2°51.874 -999 -999 -999 -999
2012-01-24 12:55:45 51°22.869 2°51.883 -999 -999 -999 -999
2012-01-24 12:56:45 51°22.694 2°51.891 -999 -999 -999 -999
2012-01-24 12:57:45 51°22.519 2°51.9 -999 -999 -999 -999
2012-01-24 12:58:45 51°22.342 2°51.918 -999 -999 -999 -999
2012-01-24 12:59:45 51°22.166 2°51.926 -999 -999 -999 -999
2012-01-24 13:00:45 51°21.99 2°51.924 -999 -999 -999 -999
2012-01-24 13:01:45 51°21.812 2°51.939 -999 -999 -999 -999
2012-01-24 13:02:45 51°21.633 2°51.956 -999 -999 -999 -999
2012-01-24 13:03:45 51°21.454 2°51.95 -999 -999 -999 -999
2012-01-24 13:04:45 51°21.275 2°51.942 -999 -999 -999 -999
2012-01-24 13:05:45 51°21.093 2°51.951 -999 -999 -999 -999
2012-01-24 13:06:45 51°20.911 2°51.972 -999 -999 -999 -999
2012-01-24 13:07:45 51°20.727 2°51.979 -999 -999 -999 -999
2012-01-24 13:08:45 51°20.545 2°51.965 -999 -999 -999 -999
2012-01-24 13:09:45 51°20.361 2°51.979 -999 -999 -999 -999
2012-01-24 13:10:45 51°20.176 2°51.979 -999 -999 -999 -999
2012-01-24 13:11:45 51°19.996 2°51.977 -999 -999 -999 -999
2012-01-24 13:12:45 51°19.817 2°52.005 -999 -999 -999 -999
2012-01-24 13:13:45 51°19.637 2°52.041 -999 -999 -999 -999
2012-01-24 13:14:45 51°19.458 2°52.073 -999 -999 -999 -999
2012-01-24 13:15:45 51°19.281 2°52.085 -999 -999 -999 -999
2012-01-24 13:16:45 51°19.104 2°52.114 -999 -999 -999 -999
2012-01-24 13:17:45 51°18.925 2°52.153 -999 -999 -999 -999
2012-01-24 13:18:45 51°18.744 2°52.163 -999 -999 -999 -999
2012-01-24 13:19:45 51°18.558 2°52.162 -999 -999 -999 -999
2012-01-24 13:20:45 51°18.374 2°52.185 -999 -999 -999 -999
2012-01-24 13:21:45 51°18.189 2°52.206 -999 -999 -999 -999
2012-01-24 13:22:45 51°18.003 2°52.241 -999 -999 -999 -999
2012-01-24 13:23:45 51°17.822 2°52.271 -999 -999 -999 -999
2012-01-24 13:24:45 51°17.643 2°52.352 -999 -999 -999 -999
2012-01-24 13:25:45 51°17.462 2°52.44 -999 -999 -999 -999
2012-01-24 13:26:45 51°17.281 2°52.527 -999 -999 -999 -999
2012-01-24 13:27:45 51°17.106 2°52.667 -999 -999 -999 -999
2012-01-24 13:28:45 51°16.926 2°52.78 -999 -999 -999 -999
2012-01-24 13:29:45 51°16.746 2°52.896 -999 -999 -999 -999
2012-01-24 13:30:45 51°16.564 2°53.02 -999 -999 -999 -999
2012-01-24 13:31:45 51°16.379 2°53.127 -999 -999 -999 -999
2012-01-24 13:32:45 51°16.193 2°53.255 -999 -999 -999 -999
2012-01-24 13:33:45 51°16.005 2°53.364 -999 -999 -999 -999
2012-01-24 13:34:45 51°15.825 2°53.519 -999 -999 -999 -999
2012-01-24 13:35:45 51°15.648 2°53.679 -999 -999 -999 -999
2012-01-24 13:36:45 51°15.481 2°53.852 -999 -999 -999 -999
2012-01-24 13:37:45 51°15.325 2°54.054 -999 -999 -999 -999
2012-01-24 13:38:45 51°15.169 2°54.258 -999 -999 -999 -999
2012-01-24 13:39:45 51°15.016 2°54.47 -999 -999 -999 -999
2012-01-24 13:40:45 51°14.862 2°54.676 -999 -999 -999 -999
2012-01-24 13:41:45 51°14.704 2°54.874 -999 -999 -999 -999
2012-01-24 13:42:45 51°14.54 2°55.049 -999 -999 -999 -999
2012-01-24 13:43:46 51°14.374 2°55.197 -999 -999 -999 -999
2012-01-24 13:44:48 51°14.262 2°55.297 -999 -999 -999 -999
2012-01-24 13:45:47 51°14.162 2°55.38 -999 -999 -999 -999
2012-01-24 13:46:47 51°14.048 2°55.468 -999 -999 -999 -999
2012-01-24 13:47:46 51°13.931 2°55.55 -999 -999 -999 -999
2012-01-24 13:48:46 51°13.83 2°55.625 -999 -999 -999 -999
2012-01-24 13:49:45 51°13.753 2°55.726 -999 -999 -999 -999
2012-01-24 13:50:48 51°13.689 2°55.846 -999 -999 -999 -999
2012-01-24 13:51:49 51°13.65 2°55.947 -999 -999 -999 -999
2012-01-24 13:52:47 51°13.638 2°56.014 -999 -999 -999 -999
2012-01-24 13:53:43 51°13.636 2°56.019 -999 -999 -999 -999
2012-01-24 14:51:54 51°13.636 2°56.019 -999 -999 -999 -999
2012-01-24 14:52:53 51°13.634 2°56.017 -999 -999 -999 -999
2012-01-24 14:53:53 51°13.635 2°56.016 -999 -999 -999 -999
2012-01-24 14:54:53 51°13.635 2°56.016 -999 -999 -999 -999
2012-01-24 14:55:53 51°13.637 2°56.018 -999 -999 -999 -999
2012-01-24 14:56:53 51°13.638 2°56.018 -999 -999 -999 -999
2012-01-24 14:57:53 51°13.638 2°56.018 -999 -999 -999 -999
2012-01-24 14:58:53 51°13.637 2°56.018 -999 -999 -999 -999
2012-01-24 14:59:53 51°13.637 2°56.019 -999 -999 -999 -999